Vorticity
7 8 5 6 8 3 7 2 2 13 4 5 -1 -18 12 22 1 13 13 4 9 4 5 9 5 3 4 4 4 6 6 6 9 6 4 7 7 9 7 6 6 5 4 5 7 5 3 6 5 5 5 4 5 7 7 7 7 6 6 6 6 6 6 6 6 5 6 7 7 8 7 8 7 7 8 6 8 8 7 9 10 10 10 9 9 9
7 8 6 6 6 3 6 -1 1 15 1 9 6 -31 4 33 3 8 19 14 15 10 9 4 2 11 10 6 6 6 6 6 9 7 4 7 7 10 10 6 7 7 4 4 6 6 4 4 5 4 4 5 5 5 7 7 7 7 6 5 4 3 4 4 6 5 4 5 6 6 6 8 7 7 7 6 7 7 7 8 8 9 9 9 9 9
8 8 6 4 5 1 3 1 3 13 -3 -1 5 -20 7 31 -2 -1 18 15 11 6 7 8 13 20 15 10 5 3 7 5 7 7 5 7 6 8 9 5 6 6 4 5 4 4 5 4 4 5 3 4 5 5 5 6 7 7 6 6 4 3 4 4 6 6 6 6 7 7 6 7 7 6 6 6 7 5 4 6 7 7 8 8 8 9
7 10 11 3 5 3 -2 0 5 16 5 -6 -2 -8 12 24 -4 0 18 13 11 10 10 11 11 15 17 17 11 4 5 5 8 8 5 8 8 6 9 8 7 6 5 6 6 3 3 4 3 3 4 3 3 4 4 5 6 6 6 6 6 5 5 5 6 7 8 7 7 7 6 6 6 6 5 6 7 4 3 5 6 6 7 6 7 7
6 9 13 6 8 5 -5 -5 3 12 10 10 5 -17 -4 15 -4 -1 20 21 17 15 19 17 7 8 12 12 14 14 9 0 2 9 7 7 8 4 7 11 7 5 5 5 7 6 2 4 4 2 3 3 3 3 3 5 5 5 6 5 6 6 5 6 7 8 9 7 6 6 6 5 5 6 6 5 6 4 4 5 5 6 7 6 6 6
7 8 8 11 13 4 -5 -5 8 12 -1 16 29 -7 -13 8 -5 -8 8 11 5 2 9 9 3 8 11 6 7 17 21 7 -4 3 6 5 8 6 5 13 11 5 4 3 5 6 3 4 4 2 2 2 3 4 3 5 5 4 5 5 5 5 6 8 8 7 8 6 5 5 4 5 5 5 6 6 5 5 5 5 5 5 6 7 7 7
6 8 2 10 15 5 -3 -9 10 14 -19 7 45 11 -5 12 5 -2 0 0 2 8 17 12 4 6 9 7 3 7 19 19 6 2 3 1 4 8 8 11 15 12 8 5 5 6 6 7 6 3 2 3 3 3 4 4 5 4 4 5 5 5 6 6 7 7 7 7 6 7 5 5 5 5 5 5 5 5 5 5 4 5 5 5 7 7
4 11 5 6 9 10 3 -13 9 13 -30 -4 34 6 -3 12 12 14 11 5 0 3 15 11 2 7 15 15 9 7 13 19 17 9 7 5 -0 2 8 9 12 15 13 9 7 7 6 6 7 4 2 3 3 3 4 4 4 5 4 5 5 5 6 5 6 6 6 7 7 7 7 6 5 5 6 6 5 5 4 4 5 5 5 5 5 6
7 3 4 9 7 13 10 -12 8 14 -22 -4 19 2 3 2 2 18 16 6 -3 -2 15 21 4 -5 7 19 13 8 8 11 16 16 14 13 7 3 4 7 9 10 13 12 9 7 6 4 4 6 4 3 4 3 4 4 4 4 4 4 4 5 6 5 6 6 6 7 6 7 7 6 6 6 7 6 6 6 5 5 5 5 5 6 5 5
33 11 -3 9 10 13 9 -10 8 15 -6 6 13 6 11 -3 -10 7 12 5 -6 -12 5 30 24 -9 -13 10 16 12 11 9 8 13 16 13 14 13 5 4 7 7 8 11 10 7 7 6 4 6 5 4 5 4 3 4 4 4 4 4 4 4 5 5 5 5 6 6 6 7 6 6 6 6 5 5 6 7 5 5 5 5 6 6 6 6
34 26 2 5 8 14 7 -8 10 15 -2 3 5 4 11 7 1 1 6 8 -4 -14 -12 9 22 2 -12 1 10 8 4 4 2 7 17 13 13 19 15 6 4 8 8 5 10 11 8 7 5 5 5 5 6 5 4 4 3 4 4 4 5 4 4 5 4 4 5 6 7 8 6 5 6 6 5 5 6 6 6 6 6 5 6 5 5 7
11 12 5 6 3 15 8 -9 10 15 1 1 1 3 8 9 12 5 2 5 1 -4 -7 -0 11 7 -2 -3 7 16 9 -2 -7 -5 8 12 10 16 23 19 4 2 8 5 5 9 12 14 10 6 6 5 6 5 5 5 4 4 3 4 5 4 4 5 4 4 4 5 5 7 7 6 6 6 5 6 6 6 6 7 7 6 6 6 6 7
11 2 6 11 4 14 7 -8 14 18 1 1 -1 4 14 11 8 8 7 6 7 9 4 4 10 9 5 -0 2 18 23 12 -4 -8 0 5 7 9 15 26 20 5 2 5 7 6 9 15 14 11 10 7 6 6 6 5 4 4 3 3 4 4 4 4 4 5 4 5 5 5 7 8 8 6 5 6 6 6 7 6 6 6 7 8 9 8
18 11 7 9 6 18 7 -14 17 32 3 -1 -1 -6 11 18 8 7 8 4 5 8 5 7 9 3 4 6 2 2 9 12 3 1 5 2 4 9 5 13 28 23 7 1 3 5 6 9 12 14 13 9 6 4 6 6 5 6 4 4 3 3 4 4 4 5 3 4 5 4 6 8 9 8 6 6 6 6 7 6 6 7 8 9 9 8
24 23 14 10 3 18 19 -21 -5 35 11 -6 1 -6 -0 11 8 9 8 8 11 3 -3 11 17 2 -2 8 14 9 2 2 3 4 7 3 0 9 9 4 14 25 23 13 3 1 6 7 8 13 14 13 9 6 6 5 4 6 5 5 5 3 3 4 4 4 4 5 5 4 5 6 7 8 7 6 6 6 6 6 6 6 6 7 8 8
26 36 36 29 5 8 32 -4 -24 15 19 2 -0 -5 4 7 0 7 4 2 19 13 -3 8 18 8 4 5 4 7 4 -1 4 5 4 5 1 2 8 7 5 10 21 28 17 2 2 7 7 10 14 14 11 7 5 5 4 6 7 6 5 5 4 4 4 4 3 3 5 5 5 5 5 6 8 8 7 6 5 5 6 7 6 6 6 7
6 22 36 42 22 5 20 10 -13 -9 7 25 15 -12 0 12 1 6 8 -4 0 7 -2 -1 7 7 8 8 0 6 12 5 7 9 4 8 9 6 7 8 9 9 11 24 28 12 0 5 8 8 12 14 12 9 8 7 5 4 6 7 6 7 6 6 6 5 5 3 3 5 4 5 5 5 8 9 9 8 7 5 4 5 7 7 6 7
-3 2 21 36 30 17 11 8 9 -8 -23 14 38 9 -4 10 11 7 11 8 -10 -10 6 10 10 9 10 16 9 4 10 7 5 9 9 10 10 9 10 7 7 12 12 14 28 27 6 1 9 6 8 11 9 10 10 8 7 5 6 5 6 7 6 7 7 6 7 5 4 5 4 3 3 4 6 8 10 10 9 9 6 5 6 6 6 6
15 -3 10 35 26 23 18 1 11 11 -21 -23 9 28 15 9 22 12 7 22 2 -14 3 6 -1 1 6 16 13 6 12 14 9 7 8 9 7 6 8 6 1 6 9 6 29 45 14 -2 11 7 4 11 7 6 10 9 8 8 9 7 6 7 5 6 8 7 8 8 6 7 6 5 3 2 3 4 7 9 9 10 9 8 7 6 6 6
32 -5 -5 41 40 30 24 6 7 12 2 -16 -23 5 17 10 29 25 5 18 17 5 9 6 2 4 4 6 6 5 8 10 11 9 5 4 9 10 8 9 6 7 9 4 28 53 20 -6 10 8 3 12 10 5 9 12 10 8 9 10 8 9 8 6 7 7 7 7 7 8 7 8 6 4 3 1 2 5 7 9 11 10 9 7 7 7
14 -8 -17 23 46 46 26 10 13 4 4 10 -12 -18 -8 -5 17 25 9 8 9 8 9 7 10 15 11 6 5 7 6 5 9 10 6 5 8 11 9 11 11 9 14 6 12 37 24 -1 5 8 3 7 6 4 6 10 12 10 8 7 7 8 8 9 9 9 10 9 8 9 8 9 9 7 7 4 2 2 2 5 8 9 11 9 8 7
-7 -20 -27 -14 18 53 43 15 12 5 5 16 8 -8 -14 -9 7 9 8 14 8 2 4 1 -2 7 15 8 2 12 13 10 11 8 5 6 9 12 9 13 16 11 16 13 4 19 28 12 4 7 8 8 8 9 9 11 15 14 10 8 9 9 8 9 10 10 11 11 10 10 9 9 9 8 8 8 7 5 3 3 3 5 8 9 10 10
8 -16 -28 -25 -9 24 51 44 18 -0 5 18 23 12 -11 -9 13 10 3 14 12 0 3 4 -8 -6 12 11 7 18 15 9 14 9 2 4 9 13 6 8 18 15 13 17 12 15 26 21 9 4 6 6 8 12 10 10 13 8 6 8 9 8 7 9 10 9 9 11 11 11 10 10 10 9 8 7 8 8 7 6 4 3 3 5 8 10
24 7 -13 -12 -9 -6 25 59 42 3 -5 7 23 26 -0 -20 -5 4 -4 2 15 10 5 11 1 -10 0 4 4 15 15 9 12 8 3 3 5 12 10 6 14 16 13 16 18 20 32 34 16 2 3 3 6 12 7 2 2 -3 -2 6 7 6 7 7 7 8 9 9 9 9 9 10 11 10 9 7 6 7 7 8 7 6 5 3 4 6
23 24 7 -10 -11 -13 -2 33 47 19 -8 -10 5 26 21 -9 -19 -3 -3 -10 2 11 12 14 4 -5 6 9 1 7 12 11 9 9 8 4 2 12 14 7 7 11 12 13 13 16 35 44 19 -2 4 6 3 9 6 -1 1 1 1 5 5 5 7 7 6 7 7 7 9 10 10 10 12 12 11 9 7 6 5 6 6 7 8 7 5 5
21 24 21 1 -11 -10 -9 5 31 35 13 -8 -8 11 25 12 -7 4 18 8 -5 -4 8 17 7 -2 6 11 8 7 9 10 8 6 6 5 4 9 10 6 8 9 9 11 10 6 17 33 22 0 -0 5 5 8 9 5 5 5 4 6 7 7 7 7 7 6 7 7 8 8 8 8 9 11 12 10 9 8 7 6 6 6 7 8 8 7
18 14 19 16 -0 -9 -10 -13 2 37 42 11 -8 -1 16 26 13 -2 11 29 20 2 4 12 10 8 8 10 15 13 7 10 8 0 1 5 5 6 6 6 9 9 6 8 11 7 6 17 28 23 6 -1 4 7 5 7 8 5 5 5 4 5 6 7 8 7 7 8 9 8 7 7 7 8 10 10 10 9 9 9 8 8 8 9 10 9
14 14 19 24 12 -1 0 -9 -20 13 48 38 19 10 2 10 15 -11 -22 2 16 10 10 9 4 10 11 6 13 18 11 8 6 1 -1 2 7 11 9 5 6 9 10 8 7 8 6 7 22 37 22 -2 -1 7 4 3 5 5 5 5 4 4 5 5 7 7 6 6 6 7 6 4 5 5 5 6 7 7 8 8 7 7 7 8 9 9
10 11 16 24 21 6 9 12 -6 -6 22 34 30 20 4 3 11 -4 -23 -14 -4 -8 -3 4 3 5 7 -2 -0 14 18 9 3 2 -1 -3 8 19 13 4 5 6 5 7 5 5 11 12 19 41 43 12 -6 2 9 7 7 7 5 3 3 3 3 3 4 6 7 6 6 6 7 5 3 3 2 2 3 3 3 4 4 4 5 6 7 8
10 7 11 20 23 10 3 16 15 -5 -5 14 16 5 5 16 23 16 4 6 12 3 -7 -4 1 5 11 14 13 13 15 13 5 3 5 0 9 23 17 4 5 5 1 3 5 2 7 14 19 36 55 38 4 -6 1 2 2 5 7 6 4 3 3 4 4 4 3 4 5 4 3 3 3 4 4 4 5 4 2 1 0 1 3 4 5 6
11 6 10 17 23 16 -2 2 21 11 -4 9 18 6 3 9 14 17 11 6 13 18 10 -0 -0 2 1 14 28 18 5 9 7 5 8 3 7 26 23 7 7 9 4 1 5 4 1 5 10 13 28 38 25 14 21 21 10 2 -1 -2 -1 2 2 -0 2 5 5 4 6 5 1 -2 -0 2 3 3 5 7 7 6 5 8 10 8 4 5
19 9 8 14 23 29 9 -11 5 22 12 5 11 14 12 4 3 10 9 4 7 13 14 4 -2 3 -4 -5 16 23 7 2 1 3 7 2 4 17 14 6 10 6 -3 -3 6 12 5 2 6 5 6 17 18 17 28 37 34 29 23 15 9 3 2 4 4 3 2 -0 0 2 1 -1 1 3 4 5 5 5 8 8 9 14 15 10 5 7
25 16 8 8 13 27 27 3 -5 14 23 15 9 15 18 12 14 17 7 5 10 10 15 13 1 9 17 5 8 21 18 8 1 -1 3 1 5 12 6 -1 1 -3 -7 -3 3 9 11 6 4 6 8 14 15 14 15 17 20 25 30 40 41 21 4 5 8 6 6 7 3 2 2 4 7 6 4 3 2 3 6 6 6 9 8 5 7 11
25 17 9 15 15 15 22 16 -0 -0 13 20 17 13 12 9 20 31 18 9 14 7 5 14 9 8 15 9 3 7 10 10 8 5 5 4 6 15 13 0 -6 -5 1 6 3 -0 6 10 8 6 6 7 11 16 16 15 14 8 5 24 52 50 23 7 7 11 14 14 10 6 4 4 5 6 8 10 11 13 11 6 7 10 6 5 9 11
25 15 4 17 24 18 22 19 1 -7 -1 10 18 17 8 -2 5 24 23 11 14 10 -4 -3 5 5 0 -2 1 5 3 5 9 8 10 13 10 12 14 9 9 14 13 13 10 -2 -7 -1 6 8 6 2 3 8 10 14 16 12 5 6 25 44 40 24 19 21 20 15 13 14 15 14 12 14 19 18 15 16 16 12 13 13 9 8 9 8
26 23 9 9 6 5 25 29 6 -3 -0 -3 8 21 15 1 -3 7 15 11 12 18 9 -1 4 12 9 3 5 10 7 6 9 7 8 13 10 7 9 7 11 17 10 4 8 4 -2 1 6 8 9 6 3 4 6 9 9 11 13 5 0 11 20 17 17 19 18 17 15 15 20 22 19 18 19 14 8 10 14 13 13 12 9 10 10 9
25 36 19 8 -2 -14 3 24 14 10 18 7 2 15 18 13 9 4 9 13 8 10 15 10 6 12 14 8 5 7 6 5 8 8 8 9 2 2 10 7 -2 -4 -6 -6 4 8 5 4 4 5 7 7 6 5 5 7 7 8 11 8 5 8 7 5 8 10 9 10 9 7 10 14 14 14 13 11 10 10 10 8 9 10 8 7 8 10
17 35 13 6 29 12 -13 6 14 5 19 28 20 18 16 14 14 6 3 9 6 4 12 14 7 7 11 10 7 5 4 5 7 8 10 10 -2 -6 6 7 -5 -10 -6 0 8 10 9 9 7 5 6 7 9 9 7 7 6 7 8 7 9 11 7 5 6 5 5 7 7 8 7 6 11 13 10 8 10 9 8 7 7 9 8 8 10 12
8 33 8 -9 38 44 0 8 24 -3 -7 19 23 17 14 9 7 8 9 12 9 2 5 12 13 11 12 13 13 10 6 4 5 5 7 9 6 3 7 8 7 13 23 25 17 9 8 11 9 6 6 7 9 10 10 9 8 7 7 6 8 9 9 11 11 6 5 4 2 5 6 3 6 9 6 7 9 7 8 7 4 5 6 7 12 18
4 29 17 -16 10 33 8 12 32 7 -15 -2 7 5 7 7 8 9 9 9 10 4 0 3 8 9 9 10 12 16 16 13 11 11 9 9 10 9 8 7 8 9 11 16 15 8 6 8 7 6 6 7 9 11 11 11 10 8 5 5 7 7 7 11 12 10 11 9 4 5 8 6 6 8 6 6 7 7 7 6 7 10 10 7 11 19
8 14 20 4 4 17 9 5 22 24 8 3 10 12 11 9 7 2 -2 -2 5 9 6 2 1 4 7 9 11 15 18 18 17 17 15 13 11 10 9 10 12 5 -5 -3 6 5 1 3 5 6 5 4 5 8 9 11 11 8 6 5 6 7 6 8 10 6 6 9 9 11 12 8 3 3 4 3 5 8 9 8 7 10 10 8 6 2
17 7 13 14 6 17 25 10 7 27 28 13 14 21 19 14 7 2 4 5 4 6 6 4 4 3 4 8 9 8 9 10 9 9 11 11 11 12 12 10 11 13 8 4 4 2 1 3 6 6 6 7 7 5 6 11 12 10 9 6 7 8 5 3 8 8 4 3 3 4 7 9 7 7 8 7 7 11 15 11 7 6 6 5 3 -2
19 9 8 10 2 12 29 11 -6 14 27 17 13 17 21 23 19 13 13 12 9 9 7 5 5 3 3 7 7 3 3 5 6 7 9 9 10 14 18 14 10 10 10 8 6 7 9 11 10 7 5 4 5 3 1 3 5 9 12 10 8 12 9 2 2 8 9 7 6 4 1 0 3 6 7 7 7 7 6 3 1 4 7 6 5 6
14 7 6 13 9 7 17 11 1 8 16 14 15 15 17 24 28 26 22 17 15 15 12 9 9 7 6 8 5 2 4 4 4 6 7 8 8 9 11 10 5 3 5 6 6 8 12 11 7 7 6 4 4 5 4 4 5 5 10 12 8 8 12 9 3 3 5 5 8 13 10 5 5 5 2 3 7 8 6 4 4 5 5 5 8 12
10 8 9 17 16 7 8 13 14 13 14 17 21 19 17 19 21 24 25 23 22 20 15 13 15 14 14 14 8 6 6 4 3 5 5 5 6 5 6 5 4 6 11 12 9 8 11 10 7 9 10 8 8 8 11 21 25 12 4 10 12 6 6 10 8 6 7 5 3 5 8 9 11 12 9 6 9 12 12 10 9 10 9 6 6 8
11 11 11 14 15 11 9 13 17 16 17 19 18 17 18 19 17 17 18 18 20 21 20 17 15 15 19 20 16 13 13 12 11 10 8 5 3 3 4 5 6 8 8 8 9 8 6 5 7 9 7 3 4 2 0 13 28 21 7 5 9 8 4 4 6 5 6 8 8 5 5 5 4 7 10 9 6 7 8 6 4 9 18 20 16 10
12 13 12 11 12 13 12 12 14 15 14 14 14 13 15 16 16 17 16 15 15 17 20 21 19 17 17 17 16 16 16 16 15 13 11 11 10 10 10 8 8 6 2 -1 1 2 2 4 7 9 6 1 2 4 2 3 12 23 22 11 4 7 8 4 4 4 2 2 5 6 7 8 5 3 6 7 6 4 6 8 5 1 3 5 6 10
9 10 11 9 10 12 11 10 10 9 9 9 10 10 10 11 11 12 12 12 13 13 14 16 18 19 18 17 16 16 15 15 14 12 10 9 10 12 14 14 14 16 14 12 8 4 3 4 3 4 6 5 3 5 8 6 4 14 27 21 4 2 7 6 4 5 4 1 1 2 3 6 7 5 4 5 8 7 7 10 12 8 5 0 -5 3
5 6 7 7 7 8 9 8 7 7 7 6 6 6 6 6 7 7 7 7 8 8 8 9 10 12 15 16 16 16 16 16 16 16 14 12 10 9 9 8 9 11 16 19 20 17 15 14 11 8 8 10 9 5 6 10 8 7 18 23 13 3 3 6 5 4 5 5 3 2 2 3 4 5 4 3 5 6 6 7 8 8 11 11 2 -2
2 3 4 5 5 5 8 8 6 4 4 4 3 4 5 5 5 6 7 6 6 6 6 6 7 7 8 10 11 12 14 15 15 16 17 17 16 14 12 11 9 7 8 10 12 15 16 17 17 16 12 11 11 7 4 9 13 9 10 18 19 8 1 4 6 3 2 4 4 4 5 6 6 6 6 3 2 3 5 7 8 7 8 11 9 2
5 5 5 5 3 3 6 7 4 1 0 1 0 1 2 3 3 3 4 4 4 5 5 5 6 6 6 7 8 8 10 11 12 13 14 16 15 13 14 15 14 11 10 9 7 8 9 9 10 13 15 14 11 8 4 5 10 12 11 16 19 11 3 4 7 6 4 5 5 6 8 9 8 8 8 7 5 3 2 2 4 5 6 7 9 8
Height
5857 5860 5863 5866 5871 5875 5878 5881 5883 5885 5887 5889 5890 5889 5890 5892 5893 5894 5895 5896 5897 5898 5900 5901 5903 5904 5906 5907 5909 5911 5912 5913 5914 5914 5915 5917 5918 5920 5922 5923 5924 5926 5927 5928 5930 5931 5932 5934 5935 5936 5937 5938 5939 5940 5942 5943 5943 5944 5945 5945 5946 5946 5947 5947 5948 5948 5948 5949 5949 5949 5950 5950 5951 5951 5951 5952 5952 5953 5953 5954 5954 5954 5955 5955 5956 5957
5855 5858 5861 5866 5871 5874 5877 5880 5880 5881 5885 5888 5889 5888 5889 5892 5892 5893 5894 5895 5896 5897 5899 5901 5902 5903 5904 5906 5909 5911 5912 5913 5914 5915 5916 5917 5918 5920 5922 5923 5924 5926 5927 5929 5930 5931 5932 5934 5935 5936 5937 5938 5940 5941 5942 5943 5944 5945 5945 5946 5946 5947 5947 5948 5949 5949 5949 5950 5950 5951 5951 5952 5952 5952 5953 5953 5954 5954 5955 5955 5955 5955 5956 5956 5957 5957
5854 5857 5861 5865 5870 5871 5873 5876 5876 5879 5884 5886 5888 5888 5888 5891 5891 5891 5892 5894 5896 5897 5899 5900 5900 5901 5903 5905 5908 5909 5911 5912 5913 5914 5916 5916 5918 5920 5921 5922 5923 5925 5927 5928 5930 5931 5932 5933 5935 5936 5937 5939 5940 5941 5942 5943 5944 5945 5946 5946 5947 5948 5948 5949 5949 5950 5950 5950 5951 5952 5952 5953 5953 5954 5954 5955 5955 5955 5955 5956 5956 5956 5956 5957 5957 5958
5853 5857 5861 5865 5866 5867 5870 5872 5874 5878 5882 5883 5886 5887 5886 5888 5890 5891 5892 5893 5895 5897 5898 5899 5899 5900 5902 5904 5905 5907 5909 5911 5912 5914 5915 5916 5917 5919 5921 5922 5923 5925 5926 5928 5930 5931 5932 5933 5934 5936 5937 5939 5940 5941 5942 5943 5944 5945 5946 5947 5947 5948 5949 5949 5950 5950 5951 5951 5952 5952 5953 5954 5954 5954 5955 5955 5956 5956 5956 5957 5957 5957 5957 5958 5958 5958
5853 5856 5861 5864 5863 5865 5869 5871 5874 5877 5880 5881 5883 5885 5884 5885 5889 5891 5892 5893 5894 5895 5896 5898 5899 5900 5902 5903 5905 5906 5908 5910 5912 5913 5915 5916 5917 5918 5920 5921 5923 5924 5926 5928 5929 5931 5932 5933 5934 5935 5937 5938 5940 5941 5942 5943 5944 5945 5946 5947 5948 5949 5949 5950 5951 5951 5951 5952 5952 5953 5953 5954 5954 5955 5955 5956 5956 5957 5957 5958 5958 5958 5958 5959 5959 5959
5851 5854 5858 5859 5858 5864 5869 5871 5873 5876 5878 5880 5880 5881 5883 5884 5887 5889 5891 5892 5893 5894 5895 5897 5899 5900 5901 5902 5903 5905 5907 5909 5911 5912 5913 5915 5917 5918 5920 5921 5922 5924 5925 5927 5929 5931 5932 5933 5934 5935 5937 5938 5939 5941 5942 5943 5944 5945 5946 5947 5948 5949 5950 5950 5951 5952 5952 5952 5953 5953 5954 5955 5955 5956 5956 5956 5957 5957 5958 5958 5959 5959 5959 5960 5960 5960
5849 5850 5852 5852 5855 5864 5867 5868 5872 5873 5877 5878 5877 5878 5882 5883 5885 5887 5889 5891 5893 5893 5895 5897 5898 5900 5901 5902 5903 5904 5906 5908 5910 5911 5912 5914 5916 5918 5920 5921 5922 5923 5924 5926 5928 5930 5932 5933 5934 5935 5936 5937 5939 5940 5942 5943 5944 5945 5946 5947 5948 5949 5950 5951 5952 5952 5952 5953 5953 5954 5955 5955 5956 5956 5956 5957 5957 5958 5958 5959 5959 5960 5960 5960 5961 5961
5844 5844 5847 5850 5857 5863 5864 5867 5870 5871 5874 5873 5873 5878 5881 5883 5885 5887 5889 5890 5891 5893 5894 5896 5898 5899 5900 5901 5903 5903 5905 5907 5908 5909 5911 5913 5915 5917 5919 5920 5921 5923 5924 5925 5927 5929 5931 5932 5933 5934 5936 5937 5939 5940 5941 5942 5944 5945 5946 5947 5948 5949 5950 5951 5952 5952 5953 5953 5954 5954 5955 5955 5956 5957 5957 5957 5958 5958 5958 5959 5959 5960 5960 5961 5961 5962
5840 5843 5848 5852 5857 5860 5862 5867 5867 5868 5870 5868 5872 5878 5879 5882 5885 5887 5888 5890 5891 5892 5893 5895 5897 5899 5899 5900 5901 5903 5904 5906 5907 5908 5910 5912 5915 5916 5918 5919 5921 5922 5923 5925 5926 5928 5930 5931 5933 5934 5935 5937 5938 5939 5941 5942 5943 5944 5945 5946 5947 5949 5950 5951 5952 5952 5952 5953 5954 5954 5955 5956 5956 5957 5957 5958 5958 5958 5959 5959 5960 5960 5960 5961 5961 5962
5840 5844 5849 5851 5856 5858 5861 5865 5864 5866 5867 5867 5874 5878 5878 5882 5885 5886 5888 5889 5890 5892 5893 5894 5895 5897 5898 5899 5900 5902 5904 5905 5907 5907 5909 5911 5913 5915 5916 5918 5920 5921 5922 5924 5925 5927 5928 5930 5931 5933 5934 5936 5937 5938 5940 5941 5943 5944 5945 5946 5947 5948 5949 5950 5951 5952 5952 5953 5954 5954 5955 5956 5957 5957 5957 5958 5958 5958 5959 5959 5960 5960 5961 5961 5962 5962
5837 5840 5843 5848 5853 5855 5859 5863 5861 5863 5865 5867 5874 5876 5877 5882 5883 5885 5887 5887 5888 5890 5892 5893 5894 5896 5897 5898 5900 5901 5903 5904 5906 5907 5908 5910 5911 5913 5915 5917 5919 5920 5922 5923 5924 5926 5927 5928 5930 5931 5933 5935 5936 5937 5939 5941 5942 5943 5944 5945 5946 5948 5949 5950 5950 5951 5952 5953 5954 5954 5955 5956 5956 5957 5958 5958 5958 5958 5959 5959 5960 5960 5961 5961 5962 5962
5833 5837 5841 5846 5849 5851 5856 5859 5858 5861 5865 5868 5872 5874 5877 5880 5880 5883 5885 5886 5888 5889 5891 5893 5894 5895 5896 5897 5898 5899 5901 5903 5904 5906 5907 5909 5910 5911 5913 5915 5917 5919 5921 5922 5923 5925 5926 5927 5929 5930 5932 5934 5935 5936 5938 5940 5941 5942 5943 5944 5946 5947 5948 5949 5950 5950 5952 5952 5953 5954 5955 5955 5955 5956 5957 5958 5958 5958 5959 5959 5960 5960 5961 5961 5961 5962
5833 5838 5843 5845 5847 5849 5854 5856 5856 5860 5865 5867 5870 5873 5875 5877 5879 5882 5884 5886 5888 5889 5891 5893 5893 5894 5894 5896 5898 5898 5899 5901 5904 5905 5906 5908 5909 5910 5912 5913 5916 5918 5919 5921 5922 5924 5925 5926 5928 5929 5931 5933 5934 5936 5937 5938 5940 5941 5942 5943 5945 5946 5947 5948 5949 5950 5951 5952 5953 5954 5955 5955 5955 5955 5956 5957 5957 5958 5959 5959 5960 5960 5961 5961 5961 5962
5833 5838 5842 5845 5845 5847 5852 5855 5855 5859 5864 5866 5869 5872 5874 5875 5878 5881 5882 5885 5888 5889 5891 5892 5893 5893 5892 5894 5896 5897 5898 5900 5902 5904 5905 5907 5908 5909 5910 5911 5914 5916 5918 5919 5921 5922 5924 5926 5927 5928 5930 5932 5933 5935 5936 5937 5938 5939 5941 5942 5943 5945 5947 5948 5949 5949 5950 5951 5952 5953 5954 5955 5955 5955 5955 5956 5957 5957 5958 5959 5960 5960 5961 5961 5962 5962
5834 5837 5840 5842 5843 5846 5850 5854 5856 5859 5863 5865 5868 5871 5872 5875 5877 5879 5882 5885 5886 5888 5889 5890 5892 5892 5892 5893 5894 5896 5898 5900 5900 5901 5902 5905 5906 5907 5908 5910 5912 5914 5916 5917 5919 5921 5923 5924 5926 5927 5929 5930 5932 5933 5934 5935 5936 5938 5940 5941 5942 5944 5946 5947 5948 5949 5950 5951 5952 5953 5953 5955 5955 5955 5955 5956 5956 5957 5958 5959 5959 5960 5961 5962 5962 5962
5836 5838 5838 5839 5841 5844 5848 5854 5855 5856 5860 5863 5866 5869 5871 5874 5876 5878 5880 5882 5884 5885 5886 5888 5890 5891 5892 5892 5893 5895 5897 5899 5900 5899 5899 5902 5903 5905 5907 5909 5911 5912 5914 5916 5917 5919 5921 5923 5924 5926 5927 5929 5930 5931 5932 5934 5935 5936 5938 5940 5941 5943 5944 5946 5947 5948 5949 5950 5951 5952 5952 5953 5954 5955 5955 5956 5956 5957 5958 5958 5959 5960 5960 5961 5962 5962
5837 5839 5837 5835 5838 5841 5846 5852 5853 5855 5860 5862 5864 5867 5869 5872 5874 5876 5878 5880 5882 5884 5885 5887 5889 5889 5891 5892 5893 5895 5897 5898 5900 5899 5898 5900 5902 5904 5906 5907 5908 5910 5912 5913 5915 5917 5919 5921 5923 5924 5926 5927 5928 5930 5931 5932 5933 5935 5936 5938 5939 5941 5943 5944 5946 5947 5948 5949 5950 5951 5952 5952 5953 5954 5955 5956 5956 5957 5957 5958 5959 5959 5960 5961 5961 5962
5833 5838 5835 5832 5836 5839 5842 5848 5849 5852 5858 5859 5862 5867 5868 5869 5871 5873 5876 5879 5881 5883 5884 5887 5889 5889 5890 5891 5893 5895 5895 5897 5898 5898 5898 5899 5901 5903 5904 5905 5907 5909 5910 5911 5913 5915 5917 5919 5921 5923 5924 5926 5927 5929 5930 5931 5932 5933 5935 5936 5938 5939 5941 5943 5944 5946 5947 5948 5949 5950 5951 5952 5953 5953 5954 5956 5956 5956 5957 5957 5958 5959 5959 5960 5961 5961
5828 5834 5833 5831 5835 5838 5840 5845 5847 5850 5854 5856 5860 5864 5865 5867 5870 5872 5876 5878 5880 5881 5883 5885 5887 5888 5889 5889 5892 5893 5893 5895 5896 5897 5897 5897 5898 5900 5902 5903 5904 5906 5908 5909 5910 5912 5914 5917 5919 5921 5923 5924 5926 5928 5929 5929 5931 5933 5934 5935 5937 5938 5940 5941 5943 5944 5945 5947 5948 5949 5950 5951 5952 5953 5954 5955 5956 5956 5956 5957 5958 5958 5959 5960 5960 5961
5825 5831 5831 5831 5833 5835 5837 5842 5845 5849 5852 5854 5857 5862 5864 5866 5868 5871 5874 5877 5878 5880 5882 5883 5885 5886 5886 5887 5890 5890 5890 5892 5893 5894 5895 5895 5897 5899 5899 5900 5902 5903 5905 5906 5907 5909 5912 5915 5917 5919 5921 5923 5925 5926 5927 5929 5931 5932 5932 5934 5935 5936 5938 5940 5941 5942 5944 5945 5946 5947 5949 5950 5951 5952 5953 5954 5955 5955 5956 5957 5957 5958 5959 5959 5960 5961
5824 5828 5830 5831 5831 5832 5836 5840 5844 5848 5850 5852 5856 5860 5863 5865 5866 5869 5872 5874 5876 5878 5881 5882 5883 5884 5884 5885 5888 5888 5887 5889 5890 5892 5894 5894 5895 5897 5898 5899 5901 5902 5903 5904 5905 5908 5911 5913 5915 5917 5919 5921 5923 5925 5927 5928 5930 5930 5931 5932 5933 5934 5936 5938 5939 5941 5942 5943 5944 5946 5947 5948 5949 5951 5952 5953 5953 5954 5955 5956 5956 5957 5958 5958 5959 5960
5821 5824 5827 5829 5831 5833 5835 5839 5843 5847 5849 5851 5854 5857 5862 5865 5866 5868 5870 5873 5875 5877 5879 5881 5882 5883 5883 5883 5885 5886 5886 5887 5888 5890 5891 5892 5893 5894 5896 5898 5899 5901 5902 5903 5904 5907 5909 5911 5913 5915 5917 5920 5922 5924 5926 5928 5929 5929 5930 5930 5931 5932 5934 5935 5937 5938 5940 5941 5943 5944 5945 5946 5948 5949 5950 5951 5952 5953 5954 5955 5955 5956 5957 5957 5958 5958
5817 5821 5824 5827 5830 5834 5834 5836 5840 5845 5848 5850 5851 5855 5861 5865 5866 5867 5870 5873 5874 5876 5878 5879 5880 5881 5881 5881 5883 5884 5885 5886 5887 5888 5889 5890 5891 5893 5895 5897 5898 5899 5900 5901 5903 5904 5906 5909 5911 5913 5915 5918 5920 5922 5924 5926 5927 5928 5928 5929 5929 5930 5931 5933 5935 5936 5938 5939 5941 5942 5943 5944 5946 5947 5948 5950 5951 5952 5953 5953 5954 5955 5955 5956 5956 5957
5815 5820 5823 5826 5829 5832 5834 5835 5838 5843 5845 5847 5849 5852 5856 5861 5864 5866 5870 5872 5873 5874 5875 5876 5878 5878 5879 5880 5882 5883 5884 5885 5885 5886 5888 5889 5891 5892 5894 5895 5896 5897 5898 5900 5901 5902 5903 5906 5908 5911 5914 5916 5918 5921 5923 5924 5925 5926 5927 5927 5928 5928 5930 5931 5933 5935 5936 5938 5939 5940 5941 5942 5944 5945 5946 5948 5949 5950 5951 5952 5952 5953 5953 5954 5954 5955
5813 5817 5821 5825 5827 5829 5832 5834 5836 5838 5840 5843 5848 5850 5853 5858 5862 5864 5867 5869 5870 5872 5873 5874 5875 5874 5875 5878 5880 5881 5882 5883 5884 5885 5886 5888 5890 5891 5892 5893 5894 5895 5897 5898 5899 5900 5901 5903 5906 5910 5913 5914 5916 5918 5920 5921 5923 5924 5925 5926 5926 5928 5929 5930 5932 5933 5934 5935 5937 5938 5940 5940 5941 5943 5944 5945 5946 5947 5948 5949 5950 5951 5952 5952 5953 5953
5811 5814 5817 5821 5824 5826 5829 5831 5833 5835 5838 5842 5846 5848 5852 5857 5861 5863 5865 5867 5868 5871 5872 5873 5872 5871 5873 5876 5877 5878 5879 5881 5882 5883 5884 5885 5887 5889 5890 5891 5893 5894 5895 5896 5897 5898 5900 5902 5905 5908 5910 5912 5913 5915 5916 5918 5919 5920 5921 5923 5925 5926 5928 5929 5930 5932 5933 5934 5935 5936 5938 5938 5939 5940 5941 5943 5944 5945 5946 5947 5947 5948 5949 5950 5951 5951
5809 5811 5813 5816 5820 5822 5825 5827 5830 5834 5837 5841 5844 5848 5853 5856 5858 5860 5864 5866 5867 5869 5870 5870 5870 5870 5872 5874 5875 5876 5877 5879 5880 5881 5882 5883 5885 5887 5889 5890 5891 5893 5894 5895 5896 5897 5898 5900 5902 5904 5906 5908 5909 5911 5913 5915 5916 5917 5919 5921 5923 5925 5926 5927 5928 5930 5931 5933 5934 5935 5936 5936 5937 5938 5939 5941 5942 5943 5944 5944 5945 5946 5947 5948 5949 5949
5807 5809 5811 5814 5818 5820 5823 5826 5829 5832 5835 5840 5845 5848 5850 5851 5852 5855 5859 5862 5863 5865 5867 5867 5867 5868 5869 5871 5873 5873 5874 5876 5878 5880 5881 5882 5883 5885 5887 5888 5890 5891 5892 5893 5894 5895 5896 5897 5898 5900 5902 5904 5905 5908 5911 5913 5914 5915 5917 5919 5921 5923 5924 5925 5926 5928 5929 5930 5932 5933 5934 5934 5935 5937 5938 5939 5940 5941 5942 5943 5944 5944 5945 5946 5947 5948
5805 5807 5809 5812 5816 5819 5822 5825 5827 5830 5835 5840 5844 5845 5845 5847 5849 5851 5856 5858 5858 5861 5863 5863 5864 5866 5866 5868 5870 5871 5872 5874 5876 5878 5879 5880 5882 5884 5885 5886 5888 5890 5891 5891 5892 5894 5895 5895 5896 5896 5898 5900 5903 5905 5908 5910 5912 5913 5915 5916 5918 5920 5922 5923 5924 5926 5927 5928 5929 5930 5931 5932 5933 5934 5935 5936 5937 5939 5940 5941 5942 5943 5944 5944 5945 5945
5803 5805 5807 5809 5813 5816 5820 5823 5826 5829 5832 5835 5837 5838 5841 5844 5847 5850 5854 5855 5854 5857 5859 5860 5862 5863 5863 5865 5867 5869 5871 5873 5874 5876 5877 5879 5881 5882 5883 5884 5886 5888 5889 5889 5891 5893 5894 5895 5895 5894 5895 5898 5901 5903 5906 5907 5909 5910 5912 5913 5914 5916 5918 5920 5922 5923 5924 5925 5926 5927 5928 5930 5931 5932 5933 5934 5935 5936 5938 5939 5940 5941 5942 5942 5943 5943
5801 5803 5805 5808 5811 5815 5818 5821 5824 5826 5828 5829 5831 5834 5837 5840 5843 5846 5848 5849 5850 5854 5857 5857 5859 5860 5861 5863 5865 5867 5869 5871 5871 5873 5875 5877 5879 5881 5882 5882 5884 5886 5887 5887 5889 5891 5891 5892 5894 5894 5895 5897 5899 5901 5903 5904 5905 5907 5908 5909 5911 5913 5914 5916 5917 5918 5920 5921 5922 5923 5925 5926 5928 5929 5929 5931 5932 5933 5935 5936 5936 5937 5938 5939 5940 5941
5800 5802 5804 5807 5810 5812 5817 5820 5821 5823 5825 5826 5827 5830 5832 5835 5838 5840 5843 5845 5848 5852 5854 5854 5855 5858 5859 5860 5862 5864 5867 5868 5870 5871 5873 5875 5877 5879 5881 5881 5882 5884 5885 5886 5888 5889 5888 5890 5891 5893 5894 5895 5897 5898 5899 5900 5902 5903 5904 5905 5907 5909 5910 5911 5914 5915 5917 5918 5919 5920 5922 5923 5924 5926 5927 5928 5929 5930 5931 5932 5933 5934 5935 5935 5936 5937
5799 5800 5803 5806 5808 5810 5813 5817 5819 5821 5822 5822 5823 5827 5830 5832 5835 5836 5839 5843 5845 5848 5850 5850 5852 5856 5857 5858 5859 5862 5864 5866 5868 5869 5870 5872 5873 5875 5879 5880 5880 5881 5883 5884 5886 5885 5886 5887 5889 5890 5892 5893 5894 5895 5896 5898 5899 5900 5901 5901 5902 5904 5906 5908 5911 5913 5914 5915 5916 5917 5919 5920 5922 5924 5925 5926 5926 5927 5928 5929 5929 5930 5931 5932 5932 5933
5797 5799 5801 5803 5805 5807 5810 5813 5817 5819 5818 5818 5820 5824 5827 5829 5831 5832 5835 5839 5842 5844 5846 5847 5850 5853 5855 5856 5857 5859 5861 5863 5866 5867 5868 5870 5870 5871 5875 5877 5877 5878 5881 5883 5883 5882 5883 5885 5886 5888 5889 5890 5892 5893 5894 5895 5897 5898 5899 5899 5899 5901 5903 5906 5908 5910 5912 5912 5913 5914 5916 5917 5919 5920 5921 5922 5923 5924 5925 5925 5926 5926 5927 5928 5928 5929
5795 5797 5799 5801 5804 5806 5807 5810 5814 5814 5813 5814 5818 5821 5824 5826 5828 5829 5832 5835 5838 5840 5842 5844 5846 5849 5851 5853 5855 5856 5859 5862 5864 5865 5866 5867 5868 5868 5871 5874 5874 5876 5878 5879 5880 5881 5881 5883 5884 5885 5887 5888 5889 5890 5891 5893 5894 5896 5897 5898 5898 5899 5901 5903 5905 5907 5908 5909 5910 5911 5912 5914 5915 5916 5917 5918 5919 5920 5921 5921 5922 5923 5923 5924 5925 5926
5793 5795 5797 5800 5803 5805 5806 5808 5809 5810 5810 5812 5815 5819 5822 5823 5825 5828 5830 5832 5835 5838 5839 5840 5842 5845 5847 5851 5852 5854 5857 5860 5861 5862 5863 5864 5864 5866 5869 5872 5873 5874 5875 5876 5878 5879 5880 5881 5882 5883 5885 5886 5887 5888 5889 5890 5892 5893 5895 5896 5897 5897 5898 5899 5901 5903 5905 5905 5906 5907 5908 5910 5911 5912 5913 5914 5915 5916 5918 5918 5919 5920 5920 5921 5922 5923
5792 5793 5796 5799 5802 5803 5805 5806 5806 5808 5809 5811 5813 5816 5819 5821 5823 5825 5827 5829 5832 5835 5836 5837 5839 5841 5844 5847 5850 5852 5855 5856 5858 5859 5860 5860 5861 5863 5865 5867 5869 5870 5872 5873 5875 5877 5877 5878 5880 5881 5882 5884 5885 5887 5888 5888 5889 5890 5892 5894 5894 5894 5895 5897 5899 5901 5902 5902 5903 5904 5905 5907 5908 5908 5910 5911 5912 5914 5915 5916 5916 5917 5917 5918 5918 5919
5791 5792 5795 5798 5800 5801 5803 5804 5805 5807 5808 5809 5811 5814 5816 5818 5820 5822 5825 5827 5829 5831 5834 5835 5836 5838 5841 5844 5847 5849 5851 5853 5854 5857 5858 5858 5858 5860 5861 5863 5864 5865 5867 5869 5871 5873 5874 5875 5877 5878 5880 5882 5883 5885 5886 5887 5887 5888 5889 5891 5892 5892 5893 5895 5897 5897 5898 5899 5900 5901 5903 5904 5904 5905 5906 5907 5909 5910 5912 5913 5913 5914 5915 5916 5915 5915
5791 5792 5794 5797 5798 5799 5802 5803 5804 5805 5807 5807 5809 5812 5814 5816 5819 5821 5823 5825 5826 5828 5831 5832 5833 5835 5838 5841 5843 5845 5847 5849 5852 5854 5855 5856 5856 5857 5858 5861 5862 5863 5863 5864 5866 5867 5870 5872 5874 5875 5877 5879 5881 5882 5883 5885 5885 5886 5886 5888 5889 5889 5891 5893 5894 5894 5894 5896 5898 5899 5900 5901 5902 5902 5903 5904 5905 5907 5908 5909 5910 5911 5912 5913 5912 5912
5790 5792 5794 5795 5796 5798 5800 5801 5802 5803 5806 5807 5808 5811 5813 5815 5817 5819 5820 5821 5823 5825 5827 5829 5830 5832 5835 5838 5841 5842 5843 5845 5848 5850 5851 5852 5853 5854 5855 5857 5860 5860 5861 5862 5862 5862 5864 5867 5869 5871 5873 5875 5877 5879 5880 5882 5883 5883 5884 5885 5887 5887 5888 5889 5890 5891 5891 5893 5895 5896 5897 5898 5899 5900 5901 5902 5903 5904 5905 5906 5907 5908 5908 5909 5910 5910
5790 5791 5792 5794 5795 5796 5797 5799 5800 5802 5804 5805 5807 5809 5811 5813 5815 5816 5817 5819 5822 5823 5824 5826 5827 5830 5833 5836 5838 5838 5839 5841 5843 5845 5847 5849 5849 5850 5851 5853 5855 5857 5858 5860 5860 5860 5860 5862 5865 5867 5869 5871 5872 5874 5876 5878 5879 5880 5881 5882 5884 5885 5885 5886 5887 5888 5888 5890 5892 5893 5893 5895 5896 5898 5898 5899 5900 5901 5902 5903 5904 5904 5904 5905 5907 5908
5789 5790 5792 5793 5794 5795 5796 5797 5798 5799 5801 5803 5805 5807 5809 5810 5812 5813 5815 5818 5820 5821 5822 5824 5825 5827 5830 5832 5833 5834 5835 5838 5840 5841 5843 5845 5845 5846 5848 5849 5850 5852 5854 5855 5856 5857 5858 5860 5861 5863 5865 5866 5868 5870 5872 5874 5876 5877 5878 5879 5880 5882 5883 5883 5884 5885 5885 5886 5888 5890 5890 5891 5893 5894 5895 5894 5895 5897 5898 5899 5901 5901 5901 5902 5904 5904
5788 5789 5790 5791 5792 5794 5795 5795 5795 5796 5798 5801 5803 5805 5807 5808 5810 5811 5814 5816 5817 5819 5820 5822 5823 5824 5827 5828 5829 5829 5831 5833 5836 5837 5838 5840 5841 5843 5844 5845 5846 5848 5849 5850 5852 5854 5855 5856 5858 5859 5860 5862 5864 5865 5867 5869 5871 5873 5875 5876 5877 5878 5880 5880 5880 5881 5882 5883 5884 5886 5887 5887 5889 5890 5891 5891 5892 5893 5894 5896 5897 5898 5899 5899 5900 5901
5788 5788 5789 5789 5790 5792 5793 5794 5795 5796 5797 5799 5801 5803 5805 5807 5808 5810 5812 5813 5815 5817 5818 5819 5821 5822 5823 5825 5825 5826 5827 5829 5831 5832 5834 5835 5837 5838 5840 5842 5843 5844 5845 5846 5848 5850 5852 5853 5854 5855 5856 5857 5859 5861 5863 5864 5866 5869 5871 5871 5872 5874 5875 5876 5877 5877 5879 5880 5881 5882 5883 5884 5885 5886 5887 5887 5888 5889 5891 5892 5894 5895 5896 5896 5897 5897
5787 5788 5788 5789 5789 5791 5792 5793 5794 5795 5796 5798 5799 5801 5803 5805 5806 5808 5810 5811 5813 5814 5816 5817 5818 5819 5820 5821 5822 5822 5824 5825 5826 5828 5829 5830 5832 5834 5836 5837 5839 5839 5841 5843 5844 5845 5847 5849 5850 5852 5852 5853 5854 5856 5858 5859 5861 5864 5866 5867 5868 5869 5870 5872 5873 5874 5875 5876 5877 5878 5880 5880 5881 5882 5883 5884 5885 5886 5887 5888 5890 5891 5892 5893 5893 5894
5786 5787 5788 5789 5789 5790 5791 5792 5793 5794 5796 5797 5798 5799 5801 5802 5804 5806 5807 5809 5810 5811 5813 5814 5815 5816 5817 5818 5819 5820 5821 5822 5823 5824 5824 5826 5827 5829 5831 5833 5833 5834 5836 5838 5839 5841 5843 5844 5846 5847 5848 5849 5850 5852 5853 5854 5856 5858 5860 5862 5863 5865 5866 5867 5868 5869 5870 5872 5873 5874 5875 5876 5877 5878 5879 5880 5881 5882 5883 5885 5886 5888 5888 5888 5889 5890
5786 5787 5788 5788 5789 5790 5791 5792 5793 5794 5795 5796 5797 5798 5800 5801 5802 5804 5805 5806 5807 5808 5810 5811 5812 5813 5814 5815 5816 5817 5818 5819 5820 5820 5821 5822 5823 5824 5826 5827 5828 5829 5831 5833 5834 5835 5837 5839 5840 5842 5843 5844 5845 5847 5848 5850 5851 5853 5855 5857 5859 5860 5861 5862 5863 5865 5866 5867 5868 5869 5870 5872 5873 5874 5875 5876 5877 5878 5880 5881 5883 5884 5884 5884 5885 5886
5787 5787 5788 5788 5789 5789 5790 5791 5792 5793 5794 5795 5796 5797 5798 5800 5801 5802 5803 5804 5805 5806 5807 5808 5809 5810 5811 5812 5812 5813 5814 5815 5816 5816 5817 5818 5819 5820 5820 5822 5823 5824 5825 5827 5828 5829 5831 5833 5834 5836 5837 5838 5840 5841 5843 5844 5846 5848 5849 5851 5853 5855 5856 5857 5858 5859 5861 5862 5863 5864 5865 5867 5868 5869 5870 5871 5872 5874 5875 5876 5878 5879 5879 5880 5881 5882
5787 5787 5788 5788 5789 5789 5790 5791 5791 5792 5793 5795 5796 5796 5797 5798 5799 5800 5801 5802 5803 5804 5804 5805 5806 5807 5807 5808 5809 5809 5810 5811 5811 5812 5812 5813 5814 5814 5815 5816 5817 5818 5819 5821 5822 5823 5824 5826 5828 5829 5831 5833 5834 5836 5837 5839 5840 5842 5844 5845 5847 5849 5850 5852 5853 5854 5855 5856 5858 5859 5860 5861 5863 5864 5865 5866 5867 5869 5870 5871 5873 5874 5875 5876 5877 5878
5786 5787 5787 5788 5788 5788 5789 5791 5791 5792 5793 5794 5795 5796 5796 5797 5798 5799 5799 5800 5801 5802 5802 5803 5804 5804 5805 5805 5805 5806 5806 5807 5807 5807 5808 5808 5809 5809 5809 5810 5811 5812 5813 5815 5816 5817 5818 5819 5821 5823 5825 5827 5828 5830 5831 5833 5835 5837 5838 5840 5841 5843 5844 5846 5847 5849 5850 5851 5852 5853 5855 5856 5857 5859 5860 5861 5862 5863 5864 5866 5867 5868 5869 5870 5872 5873
5785 5785 5785 5786 5786 5787 5788 5790 5790 5790 5791 5793 5793 5794 5795 5795 5796 5797 5797 5798 5799 5799 5800 5801 5801 5802 5802 5802 5803 5803 5803 5803 5803 5803 5803 5804 5804 5804 5804 5804 5805 5806 5807 5808 5810 5811 5812 5812 5814 5816 5818 5820 5822 5824 5826 5827 5829 5831 5832 5834 5835 5837 5838 5839 5841 5842 5843 5845 5846 5848 5849 5850 5851 5852 5854 5855 5856 5857 5858 5859 5861 5862 5863 5864 5866 5867